Time,TemperatureF,DewpointF,PressureIn,WindDirection,WindDirectionDegrees,WindSpeedMPH,WindSpeedGustMPH,Humidity,HourlyPrecipIn,Conditions,Clouds,dailyrainin,SoftwareType,DateUTC
2013-03-18 08:41:00,46.7,11.8,29.84,SSE,162,0.0,0.0,24,0.00,,,0.00,Wunderground v.1.15,2013-03-18 14:41:00,
2013-03-18 08:46:00,47.7,11.6,29.84,South,179,1.0,1.0,23,0.00,,,0.00,Wunderground v.1.15,2013-03-18 14:46:00,
2013-03-18 09:06:00,48.8,12.6,29.85,South,184,0.0,0.0,23,0.00,,,0.00,Wunderground v.1.15,2013-03-18 15:06:00,
2013-03-18 09:16:00,48.7,12.5,29.85,South,184,0.0,1.0,23,0.00,,,0.00,Wunderground v.1.15,2013-03-18 15:16:00,
2013-03-18 09:21:00,49.2,12.9,29.85,South,184,0.0,3.0,23,0.00,,,0.00,Wunderground v.1.15,2013-03-18 15:21:00,
2013-03-18 09:31:00,50.1,12.7,29.84,SSW,203,2.0,3.0,22,0.00,,,0.00,Wunderground v.1.15,2013-03-18 15:31:00,
2013-03-18 09:36:00,50.8,11.1,29.85,South,184,2.0,3.0,20,0.00,,,0.00,Wunderground v.1.15,2013-03-18 15:36:00,
2013-03-18 09:41:00,51.4,10.4,29.84,SSW,206,3.0,3.0,19,0.00,,,0.00,Wunderground v.1.15,2013-03-18 15:41:00,
2013-03-18 09:46:00,52.1,11.0,29.84,SSE,158,3.0,5.0,19,0.00,,,0.00,Wunderground v.1.15,2013-03-18 15:46:00,
2013-03-18 09:56:00,52.6,10.2,29.84,South,175,4.0,5.0,18,0.00,,,0.00,Wunderground v.1.15,2013-03-18 15:56:00,
2013-03-18 10:01:00,52.8,10.4,29.84,SSW,202,4.0,4.0,18,0.00,,,0.00,Wunderground v.1.15,2013-03-18 16:01:00,
2013-03-18 10:11:00,53.2,10.7,29.84,SSE,156,4.0,4.0,18,0.00,,,0.00,Wunderground v.1.15,2013-03-18 16:11:00,
2013-03-18 10:16:00,53.3,10.8,29.84,SSW,211,5.0,5.0,18,0.00,,,0.00,Wunderground v.1.15,2013-03-18 16:16:00,
2013-03-18 10:26:00,53.7,11.1,29.84,SW,231,5.0,5.0,18,0.00,,,0.00,Wunderground v.1.15,2013-03-18 16:26:00,
2013-03-18 10:31:00,54.0,11.4,29.84,WSW,242,4.0,4.0,18,0.00,,,0.00,Wunderground v.1.15,2013-03-18 16:31:00,
2013-03-18 10:41:00,54.7,12.0,29.84,WSW,240,3.0,5.0,18,0.00,,,0.00,Wunderground v.1.15,2013-03-18 16:41:00,
2013-03-18 10:46:00,54.7,12.0,29.84,WSW,244,3.0,5.0,18,0.00,,,0.00,Wunderground v.1.15,2013-03-18 16:46:00,
2013-03-18 11:01:00,55.6,11.4,29.84,WSW,253,3.0,3.0,17,0.00,,,0.00,Wunderground v.1.15,2013-03-18 17:01:00,
2013-03-18 11:11:00,55.9,11.6,29.84,West,281,1.0,4.0,17,0.00,,,0.00,Wunderground v.1.15,2013-03-18 17:11:00,
2013-03-18 11:16:00,56.0,11.7,29.84,WSW,250,2.0,4.0,17,0.00,,,0.00,Wunderground v.1.15,2013-03-18 17:16:00,
2013-03-18 11:26:00,57.2,12.7,29.84,WSW,246,1.0,3.0,17,0.00,,,0.00,Wunderground v.1.15,2013-03-18 17:26:00,
2013-03-18 11:36:00,60.2,13.8,29.84,SSW,210,0.0,1.0,16,0.00,,,0.00,Wunderground v.1.15,2013-03-18 17:36:00,
2013-03-18 11:46:00,59.9,13.5,29.84,SSW,200,2.0,4.0,16,0.00,,,0.00,Wunderground v.1.15,2013-03-18 17:46:00,
2013-03-18 11:51:00,59.8,13.4,29.83,ESE,117,1.0,1.0,16,0.00,,,0.00,Wunderground v.1.15,2013-03-18 17:51:00,
2013-03-18 12:01:00,59.2,13.0,29.83,SE,146,3.0,3.0,16,0.00,,,0.00,Wunderground v.1.15,2013-03-18 18:01:00,
2013-03-18 12:06:00,59.2,13.0,29.83,East,80,3.0,3.0,16,0.00,,,0.00,Wunderground v.1.15,2013-03-18 18:06:00,
2013-03-18 12:16:00,59.9,13.5,29.82,East,98,2.0,2.0,16,0.00,,,0.00,Wunderground v.1.15,2013-03-18 18:16:00,
2013-03-18 12:26:00,59.6,13.3,29.82,SE,137,4.0,8.0,16,0.00,,,0.00,Wunderground v.1.15,2013-03-18 18:26:00,
2013-03-18 12:31:00,60.1,13.7,29.82,East,86,3.0,3.0,16,0.00,,,0.00,Wunderground v.1.15,2013-03-18 18:31:00,
2013-03-18 12:36:00,60.9,12.9,29.81,East,86,1.0,3.0,15,0.00,,,0.00,Wunderground v.1.15,2013-03-18 18:36:00,
2013-03-18 12:46:00,62.0,15.2,29.81,SW,214,0.0,0.0,16,0.00,,,0.00,Wunderground v.1.15,2013-03-18 18:46:00,
2013-03-18 12:56:00,62.3,14.0,29.80,WSW,250,1.0,4.0,15,0.00,,,0.00,Wunderground v.1.15,2013-03-18 18:56:00,
2013-03-18 13:01:00,61.2,13.1,29.80,North,360,3.0,7.0,15,0.00,,,0.00,Wunderground v.1.15,2013-03-18 19:01:00,
2013-03-18 13:11:00,60.6,12.6,29.79,NE,40,7.0,7.0,15,0.00,,,0.00,Wunderground v.1.15,2013-03-18 19:11:00,
2013-03-18 13:16:00,61.5,13.4,29.78,NE,42,4.0,7.0,15,0.00,,,0.00,Wunderground v.1.15,2013-03-18 19:16:00,
2013-03-18 13:26:00,63.1,11.4,29.78,NW,315,4.0,8.0,13,0.00,,,0.00,Wunderground v.1.15,2013-03-18 19:26:00,
2013-03-18 13:31:00,62.5,10.9,29.77,WNW,291,5.0,9.0,13,0.00,,,0.00,Wunderground v.1.15,2013-03-18 19:31:00,
2013-03-18 13:41:00,62.6,12.7,29.76,North,355,12.0,19.0,14,0.00,,,0.00,Wunderground v.1.15,2013-03-18 19:41:00,
2013-03-18 13:51:00,63.1,11.4,29.76,WNW,298,15.0,15.0,13,0.00,,,0.00,Wunderground v.1.15,2013-03-18 19:51:00,
2013-03-18 14:01:00,63.8,11.9,29.76,NW,315,8.0,9.0,13,0.00,,,0.00,Wunderground v.1.15,2013-03-18 20:01:00,
2013-03-18 14:06:00,63.4,11.6,29.75,West,275,10.0,15.0,13,0.00,,,0.00,Wunderground v.1.15,2013-03-18 20:06:00,
2013-03-18 14:16:00,64.3,12.3,29.75,SSW,207,12.0,12.0,13,0.00,,,0.00,Wunderground v.1.15,2013-03-18 20:16:00,
2013-03-18 14:26:00,63.9,12.0,29.75,NW,323,15.0,23.0,13,0.00,,,0.00,Wunderground v.1.15,2013-03-18 20:26:00,
2013-03-18 14:31:00,63.8,11.9,29.75,WSW,253,16.0,16.0,13,0.00,,,0.00,Wunderground v.1.15,2013-03-18 20:31:00,
2013-03-18 14:41:00,64.0,12.1,29.74,WNW,303,15.0,15.0,13,0.00,,,0.00,Wunderground v.1.15,2013-03-18 20:41:00,
2013-03-18 14:46:00,64.0,12.1,29.74,NNW,346,14.0,17.0,13,0.00,,,0.00,Wunderground v.1.15,2013-03-18 20:46:00,
2013-03-18 14:56:00,63.7,11.9,29.75,North,351,16.0,25.0,13,0.00,,,0.00,Wunderground v.1.15,2013-03-18 20:56:00,
2013-03-18 15:11:00,63.9,12.0,29.74,NW,321,12.0,12.0,13,0.00,,,0.00,Wunderground v.1.15,2013-03-18 21:11:00,
2013-03-18 15:21:00,64.9,12.8,29.74,NW,307,11.0,13.0,13,0.00,,,0.00,Wunderground v.1.15,2013-03-18 21:21:00,
2013-03-18 15:26:00,65.1,13.0,29.74,WNW,303,12.0,13.0,13,0.00,,,0.00,Wunderground v.1.15,2013-03-18 21:26:00,
2013-03-18 15:36:00,64.9,11.0,29.74,NNW,336,13.0,14.0,12,0.00,,,0.00,Wunderground v.1.15,2013-03-18 21:36:00,
2013-03-18 15:41:00,65.0,11.1,29.73,NNW,327,15.0,18.0,12,0.00,,,0.00,Wunderground v.1.15,2013-03-18 21:41:00,
2013-03-18 15:51:00,64.5,10.7,29.73,NW,310,14.0,14.0,12,0.00,,,0.00,Wunderground v.1.15,2013-03-18 21:51:00,
2013-03-18 16:01:00,64.7,10.8,29.73,NNW,331,17.0,17.0,12,0.00,,,0.00,Wunderground v.1.15,2013-03-18 22:01:00,
2013-03-18 16:11:00,64.9,12.8,29.72,North,351,16.0,17.0,13,0.00,,,0.00,Wunderground v.1.15,2013-03-18 22:11:00,
2013-03-18 16:16:00,65.1,11.2,29.72,NNW,342,16.0,20.0,12,0.00,,,0.00,Wunderground v.1.15,2013-03-18 22:16:00,
2013-03-18 16:26:00,65.1,13.0,29.72,NW,315,15.0,16.0,13,0.00,,,0.00,Wunderground v.1.15,2013-03-18 22:26:00,
2013-03-18 16:31:00,64.6,12.6,29.73,WNW,296,16.0,17.0,13,0.00,,,0.00,Wunderground v.1.15,2013-03-18 22:31:00,
2013-03-18 16:36:00,64.2,12.3,29.73,NW,311,16.0,17.0,13,0.00,,,0.00,Wunderground v.1.15,2013-03-18 22:36:00,
2013-03-18 16:46:00,64.5,12.5,29.73,NW,309,14.0,16.0,13,0.00,,,0.00,Wunderground v.1.15,2013-03-18 22:46:00,
2013-03-18 16:51:00,64.2,12.3,29.73,NNW,347,16.0,18.0,13,0.00,,,0.00,Wunderground v.1.15,2013-03-18 22:51:00,
2013-03-18 17:01:00,64.4,12.4,29.74,NW,310,14.0,14.0,13,0.00,,,0.00,Wunderground v.1.15,2013-03-18 23:01:00,
2013-03-18 17:06:00,64.5,12.5,29.74,NW,307,13.0,14.0,13,0.00,,,0.00,Wunderground v.1.15,2013-03-18 23:06:00,
2013-03-18 17:16:00,64.1,12.2,29.74,NW,316,15.0,17.0,13,0.00,,,0.00,Wunderground v.1.15,2013-03-18 23:16:00,
2013-03-18 17:21:00,64.1,12.2,29.74,NNW,327,16.0,16.0,13,0.00,,,0.00,Wunderground v.1.15,2013-03-18 23:21:00,
2013-03-18 17:31:00,64.0,12.1,29.74,NNW,327,15.0,15.0,13,0.00,,,0.00,Wunderground v.1.15,2013-03-18 23:31:00,
2013-03-18 17:36:00,64.0,12.1,29.74,WNW,301,16.0,16.0,13,0.00,,,0.00,Wunderground v.1.15,2013-03-18 23:36:00,
2013-03-18 17:51:00,63.5,11.7,29.75,NNW,331,15.0,15.0,13,0.00,,,0.00,Wunderground v.1.15,2013-03-18 23:51:00,
2013-03-18 18:01:00,63.5,13.4,29.75,WNW,303,12.0,17.0,14,0.00,,,0.00,Wunderground v.1.15,2013-03-19 00:01:00,
2013-03-18 18:11:00,63.1,13.1,29.75,NNW,332,14.0,14.0,14,0.00,,,0.00,Wunderground v.1.15,2013-03-19 00:11:00,
2013-03-18 18:21:00,62.8,12.8,29.75,NNW,327,13.0,13.0,14,0.00,,,0.00,Wunderground v.1.15,2013-03-19 00:21:00,
2013-03-18 18:26:00,62.5,12.6,29.76,NNW,340,15.0,15.0,14,0.00,,,0.00,Wunderground v.1.15,2013-03-19 00:26:00,
2013-03-18 18:31:00,62.5,12.6,29.76,NW,325,15.0,15.0,14,0.00,,,0.00,Wunderground v.1.15,2013-03-19 00:31:00,
2013-03-18 18:41:00,62.2,12.3,29.76,WNW,302,12.0,12.0,14,0.00,,,0.00,Wunderground v.1.15,2013-03-19 00:41:00,
2013-03-18 18:46:00,62.0,12.2,29.76,North,355,11.0,12.0,14,0.00,,,0.00,Wunderground v.1.15,2013-03-19 00:46:00,
2013-03-18 18:56:00,61.6,11.9,29.77,NNW,329,11.0,12.0,14,0.00,,,0.00,Wunderground v.1.15,2013-03-19 00:56:00,
2013-03-18 19:06:00,61.2,11.5,29.77,NNW,334,11.0,12.0,14,0.00,,,0.00,Wunderground v.1.15,2013-03-19 01:06:00,
2013-03-18 19:11:00,61.0,11.4,29.77,NW,323,12.0,12.0,14,0.00,,,0.00,Wunderground v.1.15,2013-03-19 01:11:00,
2013-03-18 19:16:00,60.7,11.1,29.77,NNW,327,9.0,12.0,14,0.00,,,0.00,Wunderground v.1.15,2013-03-19 01:16:00,
2013-03-18 19:26:00,60.2,12.3,29.78,North,350,7.0,10.0,15,0.00,,,0.00,Wunderground v.1.15,2013-03-19 01:26:00,
2013-03-18 19:31:00,59.9,12.1,29.78,North,350,5.0,5.0,15,0.00,,,0.00,Wunderground v.1.15,2013-03-19 01:31:00,
2013-03-18 19:46:00,59.2,11.5,29.79,NNW,336,6.0,6.0,15,0.00,,,0.00,Wunderground v.1.15,2013-03-19 01:46:00,
2013-03-18 19:51:00,59.0,11.3,29.79,NNW,337,5.0,5.0,15,0.00,,,0.00,Wunderground v.1.15,2013-03-19 01:51:00,
2013-03-18 20:01:00,59.0,11.3,29.80,North,355,4.0,6.0,15,0.00,,,0.00,Wunderground v.1.15,2013-03-19 02:01:00,
2013-03-18 20:06:00,58.7,11.1,29.80,NNW,336,4.0,6.0,15,0.00,,,0.00,Wunderground v.1.15,2013-03-19 02:06:00,
2013-03-18 20:16:00,58.1,10.6,29.80,NNW,336,4.0,5.0,15,0.00,,,0.00,Wunderground v.1.15,2013-03-19 02:16:00,
2013-03-18 20:21:00,57.7,11.7,29.80,NNW,329,4.0,4.0,16,0.00,,,0.00,Wunderground v.1.15,2013-03-19 02:21:00,
2013-03-18 20:26:00,57.3,11.4,29.80,NNW,331,3.0,4.0,16,0.00,,,0.00,Wunderground v.1.15,2013-03-19 02:26:00,
2013-03-18 20:36:00,57.3,11.4,29.81,NNW,332,5.0,6.0,16,0.00,,,0.00,Wunderground v.1.15,2013-03-19 02:36:00,
2013-03-18 20:46:00,57.0,11.2,29.81,NNW,338,4.0,5.0,16,0.00,,,0.00,Wunderground v.1.15,2013-03-19 02:46:00,
2013-03-18 20:56:00,56.3,10.6,29.81,NW,325,4.0,4.0,16,0.00,,,0.00,Wunderground v.1.15,2013-03-19 02:56:00,
2013-03-18 21:01:00,56.0,10.4,29.82,NW,325,2.0,2.0,16,0.00,,,0.00,Wunderground v.1.15,2013-03-19 03:01:00,
2013-03-18 21:11:00,55.7,10.1,29.82,NW,325,0.0,0.0,16,0.00,,,0.00,Wunderground v.1.15,2013-03-19 03:11:00,
2013-03-18 21:16:00,55.5,10.0,29.82,NNW,330,0.0,0.0,16,0.00,,,0.00,Wunderground v.1.15,2013-03-19 03:16:00,
2013-03-18 21:21:00,54.9,10.8,29.82,NNE,17,0.0,0.0,17,0.00,,,0.00,Wunderground v.1.15,2013-03-19 03:21:00,
2013-03-18 21:31:00,54.3,10.3,29.83,NNE,17,0.0,0.0,17,0.00,,,0.00,Wunderground v.1.15,2013-03-19 03:31:00,
2013-03-18 21:41:00,54.1,10.2,29.83,NNE,17,0.0,0.0,17,0.00,,,0.00,Wunderground v.1.15,2013-03-19 03:41:00,
2013-03-18 21:51:00,54.0,10.1,29.83,ENE,71,1.0,2.0,17,0.00,,,0.00,Wunderground v.1.15,2013-03-19 03:51:00,
2013-03-18 21:56:00,54.1,10.2,29.83,ENE,72,2.0,3.0,17,0.00,,,0.00,Wunderground v.1.15,2013-03-19 03:56:00,
2013-03-18 22:01:00,53.9,10.0,29.84,ENE,72,1.0,1.0,17,0.00,,,0.00,Wunderground v.1.15,2013-03-19 04:01:00,
2013-03-18 22:06:00,54.0,10.1,29.84,NNE,26,2.0,2.0,17,0.00,,,0.00,Wunderground v.1.15,2013-03-19 04:06:00,
2013-03-18 22:11:00,53.9,10.0,29.84,NE,34,2.0,3.0,17,0.00,,,0.00,Wunderground v.1.15,2013-03-19 04:11:00,
2013-03-18 22:21:00,54.0,10.1,29.84,NE,53,2.0,3.0,17,0.00,,,0.00,Wunderground v.1.15,2013-03-19 04:21:00,
2013-03-18 22:31:00,53.4,9.6,29.84,NE,54,2.0,3.0,17,0.00,,,0.00,Wunderground v.1.15,2013-03-19 04:31:00,
2013-03-18 22:36:00,53.4,8.3,29.84,NE,53,2.0,3.0,16,0.00,,,0.00,Wunderground v.1.15,2013-03-19 04:36:00,
2013-03-18 22:46:00,53.3,9.5,29.85,NE,53,2.0,2.0,17,0.00,,,0.00,Wunderground v.1.15,2013-03-19 04:46:00,
2013-03-18 22:51:00,53.1,8.0,29.85,NE,53,2.0,2.0,16,0.00,,,0.00,Wunderground v.1.15,2013-03-19 04:51:00,
2013-03-18 23:01:00,52.7,7.7,29.85,NE,53,2.0,2.0,16,0.00,,,0.00,Wunderground v.1.15,2013-03-19 05:01:00,
2013-03-18 23:06:00,53.1,8.0,29.85,NE,54,2.0,2.0,16,0.00,,,0.00,Wunderground v.1.15,2013-03-19 05:06:00,
2013-03-18 23:11:00,53.0,7.9,29.85,NE,54,2.0,2.0,16,0.00,,,0.00,Wunderground v.1.15,2013-03-19 05:11:00,
2013-03-18 23:21:00,51.0,8.9,29.84,NE,53,2.0,3.0,18,0.00,,,0.00,Wunderground v.1.15,2013-03-19 05:21:00,
2013-03-18 23:26:00,49.8,9.1,29.84,NE,53,2.0,3.0,19,0.00,,,0.00,Wunderground v.1.15,2013-03-19 05:26:00,
2013-03-18 23:31:00,48.8,8.3,29.84,NE,53,2.0,3.0,19,0.00,,,0.00,Wunderground v.1.15,2013-03-19 05:31:00,
2013-03-18 23:41:00,47.3,8.2,29.84,NNE,26,2.0,5.0,20,0.00,,,0.00,Wunderground v.1.15,2013-03-19 05:41:00,
2013-03-18 23:51:00,47.3,7.0,29.84,NE,40,4.0,4.0,19,0.00,,,0.00,Wunderground v.1.15,2013-03-19 05:51:00,